Content
SEND FEEDBACK

Daily
Averages
Monthly
Summary
United States of America

BOSTON, MASSACHUSETTS


Home > North America > United States > Massachusetts
Elevation: 4 feet     Latitude: 42 22N     Longitude: 071 02W

WEATHER
 
SELECT A DAY
Number of Records: 202,471;   Date Range: 1/1/95 - 7/22/14
 
SHARE

PRINT THIS DATA

[ ← Previous Day ]
WEATHER ALMANAC - MAY 13, 2013
[ Next Day → ]
[ °C ]   °F
Weather ElementAverageHighLow
Temperature52.2 °F59 °F (1:54 pm)46 °F (5:54 am)
Dewpoint27.4 °F30.9 °F (6:54 am)24.1 °F (5:54 pm)
Humidity39 %54 % (6:54 am)28 % (4:54 pm)
Barometer29.95 in30.03 in (9:54 pm)29.85 in (1:54 am)
Wind Speed12.6 mph19.6 mph (8:54 am)
Wind Gust26.5 mph (10:54 am)
Weather ElementAverage
Visibility10 mi
Wind DirectionWNW (276.4 °)

Weather ElementTotal
Precipitation---
Heating Degree Days12.5 (Base 65)
Growing Degree Days2.5 (Base 50)
Averaged from 22 records on May 13, 2013
WEATHER CONDITIONS BREAKOUT
WIND DIRECTION BREAKOUT
WEATHER BY HOUR - MAY 13, 2013
[ °C ]   °F
Local TimeTemperatureDewpointHumidityBarometerVisibilityWind DirectionWind SpeedGust SpeedPrecipitationEventsConditions
1:54 AM50.0 °F28.9 °F44 %29.85 in10.0 miWest (270°)11.5 mphClear
2:54 AM48.9 °F28.9 °F46 %29.86 in10.0 miWest (270°)10.4 mphClear
3:54 AM48.0 °F28.9 °F48 %29.87 in10.0 miWest (270°)12.7 mphClear
4:54 AM46.9 °F27.0 °F46 %29.89 in10.0 miWest (260°)12.7 mphClear
5:54 AM46.0 °F28.0 °F50 %29.92 in10.0 miWSW (240°)6.9 mphClear
6:54 AM46.9 °F30.9 °F54 %29.94 in10.0 miSSW (210°)9.2 mphPartly Cloudy
7:54 AM50.0 °F30.0 °F46 %29.94 in10.0 miWSW (240°)9.2 mph21.9 mphScattered Clouds
8:54 AM51.1 °F28.0 °F41 %29.95 in10.0 miWest (280°)19.6 mph24.2 mphScattered Clouds
9:54 AM53.1 °F30.0 °F41 %29.95 in10.0 miWest (270°)13.8 mphScattered Clouds
10:54 AM55.0 °F28.9 °F37 %29.96 in10.0 miWSW (250°)13.8 mph26.5 mphScattered Clouds
11:54 AM57.0 °F30.0 °F36 %29.96 in10.0 miWSW (240°)16.1 mph21.9 mphPartly Cloudy
12:54 PM57.0 °F28.9 °F34 %29.96 in10.0 miWSW (250°)12.7 mph19.6 mphPartly Cloudy
1:54 PM59.0 °F28.9 °F32 %29.95 in10.0 miWest (270°)16.1 mph23.0 mphPartly Cloudy
2:54 PM57.0 °F26.1 °F30 %29.94 in10.0 miWNW (300°)9.2 mph26.5 mphMostly Cloudy
4:54 PM57.9 °F25.0 °F28 %29.93 in10.0 miWNW (300°)18.4 mph23.0 mphScattered Clouds
5:54 PM57.0 °F24.1 °F28 %29.94 in10.0 miWest (270°)10.4 mph20.7 mphScattered Clouds
6:54 PM55.9 °F25.0 °F30 %29.95 in10.0 miWNW (300°)13.8 mph21.9 mphScattered Clouds
7:54 PM53.6 °F24.8 °F33 %29.99 in10.0 miNW (320°)16.1 mph21.9 mphScattered Clouds
8:54 PM51.1 °F24.1 °F35 %30.01 in10.0 miNW (320°)12.7 mphMostly Cloudy
9:54 PM50.0 °F24.1 °F36 %30.03 in10.0 miNNW (330°)9.2 mphMostly Cloudy
10:54 PM48.9 °F26.1 °F41 %30.03 in10.0 miWNW (300°)12.7 mphMostly Cloudy
11:54 PM48.9 °F27.0 °F43 %30.03 in10.0 miNW (320°)10.4 mphMostly Cloudy
Hourly data recorded from KBOS, located miles away from Boston, Massachusetts







STORIES FROM OUR PARTNERS